Precipitable_Water
0.34 0.32 0.28 0.26 0.26 0.26 0.27 0.29 0.30 0.29 0.29 0.24 0.21 0.20 0.14 0.14 0.12 0.19 0.23 0.25 0.20 0.15 0.10 0.13 0.12 0.11 0.13 0.18 0.16 0.17 0.14 0.13 0.13 0.13 0.14 0.11 0.14 0.12 0.11 0.09 0.10 0.10 0.10 0.09 0.09 0.09 0.08 0.08 0.07 0.08 0.09 0.10 0.11 0.15 0.18 0.19 0.17 0.16 0.13 0.15 0.17 0.17 0.11 0.08 0.08 0.09 0.11 0.13 0.15 0.16 0.16 0.17 0.14 0.15 0.16 0.15 0.13 0.15 0.14 0.13 0.15 0.12 0.11 0.11 0.12 0.12 0.11
0.34 0.32 0.29 0.26 0.24 0.25 0.25 0.25 0.27 0.27 0.26 0.25 0.21 0.16 0.13 0.13 0.13 0.15 0.22 0.25 0.19 0.20 0.07 0.08 0.10 0.11 0.14 0.14 0.12 0.16 0.13 0.13 0.11 0.11 0.12 0.11 0.10 0.10 0.10 0.12 0.12 0.09 0.13 0.10 0.08 0.10 0.06 0.09 0.09 0.08 0.10 0.09 0.17 0.16 0.18 0.19 0.15 0.14 0.14 0.11 0.17 0.09 0.11 0.09 0.07 0.06 0.06 0.08 0.10 0.11 0.16 0.16 0.13 0.12 0.14 0.15 0.16 0.15 0.15 0.15 0.16 0.12 0.11 0.12 0.11 0.09 0.10
0.33 0.31 0.29 0.26 0.24 0.23 0.23 0.23 0.22 0.25 0.26 0.26 0.20 0.12 0.13 0.12 0.15 0.14 0.15 0.19 0.18 0.10 0.13 0.09 0.08 0.09 0.08 0.09 0.08 0.10 0.11 0.13 0.12 0.12 0.11 0.14 0.11 0.11 0.09 0.11 0.12 0.11 0.13 0.10 0.11 0.11 0.09 0.07 0.10 0.09 0.10 0.10 0.17 0.16 0.17 0.19 0.15 0.19 0.20 0.18 0.20 0.12 0.10 0.09 0.06 0.05 0.04 0.04 0.04 0.06 0.07 0.09 0.11 0.13 0.13 0.13 0.13 0.13 0.13 0.11 0.13 0.11 0.12 0.13 0.11 0.11 0.13
0.31 0.30 0.28 0.26 0.24 0.22 0.21 0.21 0.20 0.19 0.21 0.20 0.21 0.12 0.15 0.10 0.06 0.09 0.11 0.14 0.12 0.12 0.14 0.11 0.08 0.07 0.07 0.06 0.08 0.10 0.08 0.11 0.14 0.14 0.11 0.14 0.13 0.12 0.12 0.13 0.13 0.10 0.11 0.10 0.09 0.09 0.12 0.09 0.08 0.09 0.09 0.11 0.13 0.16 0.17 0.18 0.18 0.18 0.20 0.19 0.18 0.11 0.12 0.10 0.09 0.08 0.06 0.06 0.08 0.11 0.13 0.11 0.09 0.08 0.10 0.11 0.14 0.16 0.15 0.14 0.12 0.11 0.13 0.11 0.12 0.13 0.14
0.30 0.28 0.27 0.26 0.24 0.22 0.21 0.20 0.19 0.19 0.18 0.18 0.16 0.13 0.11 0.11 0.07 0.08 0.06 0.11 0.10 0.09 0.11 0.10 0.11 0.07 0.11 0.06 0.09 0.07 0.08 0.10 0.10 0.15 0.10 0.13 0.12 0.13 0.11 0.11 0.10 0.09 0.10 0.08 0.09 0.09 0.09 0.12 0.10 0.09 0.09 0.11 0.12 0.17 0.17 0.18 0.19 0.19 0.17 0.20 0.16 0.12 0.09 0.10 0.11 0.10 0.09 0.09 0.10 0.11 0.12 0.10 0.10 0.09 0.09 0.11 0.13 0.14 0.13 0.11 0.10 0.15 0.13 0.09 0.11 0.14 0.12
0.29 0.28 0.26 0.25 0.23 0.21 0.20 0.19 0.19 0.18 0.17 0.16 0.20 0.08 0.11 0.06 0.09 0.11 0.13 0.11 0.06 0.07 0.06 0.10 0.09 0.10 0.10 0.07 0.10 0.08 0.08 0.09 0.07 0.12 0.12 0.13 0.14 0.10 0.12 0.12 0.12 0.12 0.10 0.10 0.08 0.09 0.09 0.10 0.07 0.10 0.10 0.10 0.12 0.12 0.16 0.15 0.18 0.18 0.17 0.19 0.15 0.11 0.07 0.09 0.09 0.08 0.09 0.10 0.11 0.12 0.11 0.11 0.10 0.10 0.11 0.10 0.11 0.13 0.11 0.11 0.14 0.14 0.12 0.09 0.11 0.12 0.11
0.28 0.27 0.25 0.23 0.22 0.19 0.18 0.18 0.17 0.17 0.14 0.16 0.17 0.07 0.10 0.10 0.10 0.10 0.14 0.08 0.08 0.09 0.09 0.10 0.10 0.08 0.09 0.09 0.10 0.08 0.08 0.07 0.09 0.09 0.10 0.11 0.10 0.11 0.07 0.09 0.11 0.12 0.13 0.11 0.08 0.10 0.07 0.07 0.10 0.09 0.09 0.10 0.11 0.10 0.12 0.16 0.18 0.16 0.15 0.16 0.16 0.12 0.09 0.10 0.10 0.08 0.09 0.10 0.11 0.11 0.10 0.09 0.08 0.10 0.10 0.10 0.10 0.10 0.12 0.12 0.14 0.14 0.12 0.12 0.12 0.12 0.12
0.27 0.26 0.25 0.24 0.22 0.19 0.18 0.17 0.17 0.17 0.16 0.18 0.09 0.10 0.07 0.06 0.06 0.06 0.10 0.10 0.09 0.09 0.10 0.09 0.10 0.07 0.10 0.07 0.08 0.09 0.09 0.08 0.10 0.11 0.10 0.08 0.09 0.13 0.10 0.10 0.12 0.12 0.13 0.12 0.09 0.11 0.12 0.11 0.09 0.11 0.11 0.10 0.12 0.10 0.10 0.10 0.15 0.16 0.13 0.14 0.16 0.11 0.07 0.10 0.10 0.08 0.06 0.10 0.12 0.11 0.10 0.08 0.07 0.09 0.10 0.10 0.10 0.10 0.11 0.12 0.13 0.14 0.12 0.12 0.12 0.12 0.11
0.27 0.26 0.26 0.25 0.23 0.21 0.19 0.16 0.16 0.15 0.18 0.09 0.08 0.09 0.11 0.10 0.13 0.11 0.07 0.07 0.08 0.10 0.09 0.09 0.08 0.07 0.08 0.08 0.09 0.10 0.10 0.09 0.11 0.10 0.13 0.10 0.09 0.11 0.10 0.12 0.12 0.14 0.13 0.13 0.12 0.14 0.13 0.13 0.13 0.15 0.14 0.10 0.14 0.11 0.11 0.14 0.12 0.14 0.13 0.14 0.13 0.13 0.09 0.11 0.11 0.07 0.05 0.08 0.09 0.09 0.09 0.10 0.10 0.09 0.08 0.09 0.08 0.07 0.10 0.11 0.12 0.10 0.09 0.10 0.11 0.10 0.10
0.28 0.27 0.26 0.26 0.25 0.23 0.19 0.16 0.15 0.14 0.14 0.10 0.11 0.08 0.12 0.12 0.13 0.13 0.11 0.06 0.09 0.08 0.09 0.10 0.11 0.06 0.09 0.09 0.09 0.09 0.09 0.11 0.13 0.09 0.12 0.13 0.14 0.14 0.13 0.13 0.13 0.12 0.13 0.11 0.12 0.14 0.15 0.16 0.18 0.18 0.18 0.19 0.18 0.18 0.17 0.17 0.14 0.14 0.13 0.15 0.12 0.12 0.11 0.10 0.10 0.07 0.05 0.07 0.09 0.09 0.07 0.08 0.08 0.07 0.07 0.08 0.08 0.09 0.10 0.11 0.12 0.11 0.12 0.10 0.09 0.09 0.12
0.28 0.28 0.27 0.26 0.26 0.24 0.22 0.18 0.15 0.15 0.13 0.09 0.09 0.09 0.11 0.10 0.09 0.09 0.10 0.06 0.08 0.08 0.08 0.07 0.07 0.07 0.11 0.10 0.09 0.11 0.10 0.11 0.11 0.08 0.08 0.13 0.14 0.17 0.15 0.14 0.11 0.10 0.11 0.14 0.19 0.20 0.20 0.20 0.20 0.20 0.19 0.18 0.18 0.18 0.18 0.19 0.19 0.17 0.15 0.13 0.13 0.13 0.12 0.11 0.12 0.07 0.06 0.07 0.08 0.09 0.07 0.03 0.03 0.07 0.10 0.10 0.08 0.09 0.08 0.09 0.11 0.13 0.14 0.12 0.13 0.13 0.15
0.29 0.28 0.28 0.27 0.26 0.25 0.24 0.21 0.17 0.15 0.15 0.14 0.14 0.11 0.13 0.12 0.12 0.10 0.07 0.06 0.06 0.08 0.07 0.06 0.07 0.08 0.09 0.10 0.10 0.10 0.10 0.10 0.11 0.13 0.09 0.11 0.14 0.17 0.16 0.15 0.14 0.10 0.17 0.24 0.23 0.22 0.22 0.20 0.20 0.19 0.18 0.18 0.17 0.18 0.18 0.15 0.16 0.18 0.18 0.14 0.13 0.12 0.12 0.11 0.12 0.09 0.07 0.08 0.09 0.06 0.03 0.03 0.06 0.08 0.10 0.12 0.12 0.12 0.11 0.11 0.11 0.11 0.14 0.16 0.15 0.16 0.17
0.28 0.28 0.27 0.26 0.26 0.26 0.26 0.25 0.21 0.16 0.16 0.15 0.13 0.09 0.13 0.15 0.12 0.09 0.08 0.07 0.06 0.08 0.06 0.07 0.10 0.10 0.10 0.10 0.10 0.11 0.12 0.12 0.14 0.14 0.14 0.13 0.13 0.16 0.18 0.16 0.14 0.17 0.25 0.21 0.22 0.19 0.13 0.10 0.11 0.11 0.12 0.14 0.14 0.16 0.15 0.14 0.15 0.17 0.17 0.17 0.14 0.12 0.12 0.12 0.11 0.11 0.10 0.09 0.08 0.04 0.04 0.06 0.08 0.09 0.11 0.14 0.14 0.14 0.14 0.11 0.11 0.14 0.14 0.15 0.16 0.17 0.19
0.27 0.26 0.26 0.25 0.25 0.25 0.26 0.26 0.25 0.21 0.17 0.15 0.11 0.11 0.13 0.14 0.10 0.08 0.08 0.06 0.07 0.08 0.09 0.09 0.10 0.09 0.10 0.11 0.10 0.11 0.12 0.12 0.12 0.14 0.12 0.16 0.14 0.16 0.20 0.21 0.21 0.25 0.24 0.23 0.18 0.15 0.10 0.11 0.08 0.08 0.08 0.09 0.09 0.08 0.11 0.14 0.14 0.14 0.15 0.16 0.17 0.15 0.14 0.13 0.10 0.12 0.07 0.07 0.07 0.07 0.09 0.09 0.08 0.10 0.11 0.11 0.11 0.12 0.12 0.09 0.09 0.12 0.15 0.17 0.18 0.19 0.20
0.26 0.25 0.24 0.24 0.24 0.25 0.25 0.26 0.26 0.25 0.22 0.20 0.16 0.15 0.15 0.14 0.13 0.11 0.10 0.09 0.06 0.08 0.10 0.07 0.09 0.10 0.11 0.11 0.12 0.11 0.11 0.12 0.11 0.11 0.14 0.17 0.15 0.19 0.22 0.25 0.26 0.25 0.25 0.18 0.14 0.14 0.11 0.10 0.07 0.06 0.07 0.06 0.04 0.05 0.09 0.08 0.13 0.16 0.15 0.16 0.16 0.17 0.12 0.14 0.11 0.09 0.11 0.08 0.07 0.07 0.07 0.05 0.06 0.09 0.14 0.14 0.15 0.16 0.17 0.15 0.11 0.15 0.19 0.21 0.21 0.20 0.20
0.26 0.25 0.25 0.24 0.24 0.25 0.25 0.26 0.27 0.26 0.24 0.23 0.18 0.15 0.16 0.18 0.17 0.17 0.12 0.09 0.08 0.07 0.10 0.13 0.13 0.12 0.11 0.12 0.14 0.12 0.11 0.12 0.12 0.11 0.11 0.14 0.16 0.19 0.24 0.26 0.25 0.25 0.22 0.17 0.15 0.12 0.10 0.08 0.07 0.06 0.05 0.06 0.08 0.07 0.06 0.09 0.08 0.14 0.16 0.16 0.16 0.17 0.17 0.15 0.13 0.10 0.11 0.10 0.08 0.08 0.07 0.06 0.07 0.09 0.15 0.16 0.17 0.19 0.19 0.15 0.11 0.18 0.22 0.25 0.24 0.21 0.21
0.25 0.26 0.25 0.24 0.24 0.25 0.25 0.26 0.26 0.26 0.24 0.23 0.17 0.16 0.15 0.22 0.16 0.14 0.11 0.10 0.10 0.08 0.15 0.16 0.16 0.15 0.14 0.12 0.14 0.13 0.14 0.12 0.13 0.11 0.11 0.13 0.15 0.17 0.22 0.24 0.24 0.23 0.18 0.15 0.13 0.11 0.10 0.08 0.08 0.08 0.08 0.09 0.07 0.06 0.08 0.09 0.07 0.07 0.12 0.14 0.13 0.13 0.14 0.14 0.12 0.10 0.10 0.10 0.09 0.07 0.09 0.08 0.09 0.11 0.15 0.18 0.20 0.20 0.17 0.10 0.10 0.22 0.23 0.24 0.23 0.22 0.24
0.24 0.25 0.26 0.25 0.23 0.23 0.24 0.25 0.26 0.26 0.25 0.24 0.20 0.16 0.18 0.25 0.25 0.21 0.15 0.11 0.09 0.12 0.17 0.19 0.16 0.14 0.14 0.15 0.14 0.16 0.18 0.17 0.16 0.15 0.13 0.17 0.16 0.17 0.19 0.21 0.16 0.22 0.21 0.13 0.13 0.11 0.09 0.09 0.07 0.07 0.07 0.10 0.11 0.11 0.07 0.09 0.07 0.08 0.08 0.09 0.10 0.12 0.12 0.13 0.09 0.10 0.11 0.11 0.10 0.11 0.11 0.11 0.14 0.17 0.18 0.19 0.22 0.18 0.13 0.11 0.16 0.22 0.22 0.24 0.26 0.26 0.28
0.23 0.24 0.25 0.25 0.23 0.22 0.22 0.23 0.25 0.25 0.24 0.25 0.25 0.22 0.20 0.25 0.25 0.24 0.17 0.13 0.12 0.10 0.18 0.22 0.23 0.19 0.20 0.23 0.19 0.19 0.19 0.19 0.17 0.14 0.14 0.16 0.15 0.20 0.22 0.18 0.20 0.14 0.18 0.13 0.13 0.11 0.09 0.09 0.11 0.10 0.08 0.10 0.11 0.09 0.11 0.09 0.08 0.10 0.10 0.09 0.10 0.11 0.12 0.12 0.12 0.10 0.09 0.11 0.10 0.10 0.11 0.14 0.17 0.18 0.19 0.23 0.19 0.12 0.13 0.19 0.24 0.24 0.24 0.26 0.28 0.28 0.29
0.22 0.23 0.24 0.25 0.24 0.22 0.21 0.21 0.22 0.23 0.24 0.25 0.22 0.16 0.23 0.28 0.27 0.25 0.18 0.12 0.14 0.13 0.19 0.22 0.23 0.20 0.24 0.21 0.18 0.18 0.19 0.20 0.19 0.17 0.15 0.13 0.20 0.21 0.20 0.13 0.20 0.19 0.15 0.15 0.12 0.13 0.10 0.09 0.10 0.12 0.10 0.10 0.12 0.13 0.11 0.10 0.13 0.11 0.11 0.12 0.10 0.11 0.10 0.09 0.10 0.14 0.13 0.12 0.10 0.09 0.08 0.14 0.19 0.21 0.21 0.25 0.17 0.18 0.24 0.25 0.25 0.28 0.28 0.29 0.28 0.28 0.28
0.21 0.21 0.22 0.24 0.24 0.23 0.21 0.20 0.21 0.22 0.23 0.24 0.26 0.22 0.19 0.27 0.29 0.29 0.29 0.23 0.15 0.14 0.18 0.27 0.28 0.26 0.28 0.26 0.26 0.26 0.22 0.19 0.20 0.17 0.19 0.19 0.22 0.18 0.11 0.11 0.15 0.16 0.13 0.14 0.10 0.11 0.12 0.10 0.11 0.11 0.13 0.12 0.13 0.13 0.10 0.11 0.11 0.14 0.14 0.13 0.12 0.14 0.11 0.10 0.11 0.14 0.10 0.10 0.09 0.10 0.12 0.15 0.21 0.21 0.18 0.22 0.25 0.29 0.31 0.29 0.27 0.30 0.31 0.29 0.29 0.29 0.30
0.20 0.21 0.22 0.23 0.24 0.24 0.22 0.21 0.21 0.22 0.23 0.24 0.25 0.23 0.18 0.26 0.31 0.32 0.31 0.28 0.18 0.15 0.20 0.29 0.33 0.31 0.33 0.34 0.33 0.32 0.29 0.28 0.29 0.28 0.21 0.18 0.22 0.19 0.19 0.20 0.19 0.18 0.18 0.18 0.16 0.14 0.16 0.14 0.15 0.12 0.12 0.13 0.16 0.12 0.13 0.11 0.09 0.12 0.15 0.14 0.10 0.15 0.11 0.13 0.11 0.14 0.13 0.12 0.13 0.15 0.17 0.20 0.24 0.25 0.26 0.30 0.32 0.32 0.31 0.32 0.31 0.30 0.30 0.33 0.31 0.30 0.30
0.20 0.21 0.22 0.23 0.24 0.25 0.25 0.23 0.21 0.21 0.22 0.25 0.25 0.21 0.19 0.25 0.27 0.31 0.31 0.19 0.25 0.27 0.31 0.29 0.32 0.33 0.36 0.35 0.38 0.38 0.38 0.39 0.36 0.32 0.28 0.20 0.18 0.20 0.18 0.18 0.17 0.20 0.21 0.20 0.15 0.15 0.15 0.15 0.13 0.16 0.14 0.14 0.14 0.12 0.13 0.13 0.11 0.12 0.11 0.14 0.13 0.16 0.18 0.20 0.17 0.15 0.18 0.18 0.19 0.22 0.22 0.25 0.27 0.30 0.31 0.31 0.32 0.33 0.32 0.30 0.29 0.30 0.31 0.31 0.29 0.30 0.30
0.20 0.21 0.22 0.24 0.24 0.25 0.25 0.26 0.24 0.22 0.22 0.24 0.26 0.24 0.23 0.26 0.27 0.26 0.23 0.21 0.18 0.17 0.24 0.26 0.24 0.19 0.23 0.24 0.32 0.37 0.37 0.36 0.34 0.34 0.34 0.28 0.16 0.17 0.21 0.20 0.21 0.21 0.20 0.21 0.24 0.18 0.18 0.17 0.17 0.17 0.12 0.15 0.15 0.12 0.11 0.11 0.12 0.15 0.15 0.13 0.16 0.20 0.21 0.20 0.16 0.18 0.17 0.13 0.19 0.23 0.23 0.24 0.28 0.29 0.31 0.31 0.29 0.29 0.29 0.27 0.28 0.28 0.28 0.29 0.30 0.30 0.30
0.21 0.21 0.22 0.24 0.25 0.25 0.26 0.26 0.27 0.26 0.23 0.23 0.24 0.27 0.28 0.25 0.28 0.27 0.22 0.13 0.14 0.15 0.10 0.16 0.20 0.27 0.33 0.37 0.38 0.34 0.35 0.37 0.37 0.34 0.32 0.30 0.25 0.17 0.15 0.20 0.24 0.20 0.19 0.23 0.25 0.23 0.22 0.16 0.16 0.16 0.12 0.16 0.16 0.12 0.15 0.13 0.13 0.17 0.12 0.13 0.16 0.18 0.24 0.19 0.19 0.19 0.17 0.17 0.23 0.25 0.25 0.26 0.28 0.28 0.28 0.27 0.27 0.27 0.28 0.28 0.28 0.28 0.28 0.28 0.29 0.29 0.27
0.22 0.22 0.23 0.24 0.25 0.26 0.26 0.26 0.26 0.28 0.27 0.25 0.24 0.20 0.19 0.20 0.27 0.30 0.24 0.21 0.19 0.17 0.12 0.11 0.17 0.35 0.34 0.33 0.29 0.31 0.35 0.34 0.32 0.32 0.30 0.29 0.29 0.27 0.24 0.25 0.24 0.28 0.26 0.26 0.25 0.21 0.20 0.18 0.18 0.18 0.15 0.15 0.20 0.14 0.13 0.16 0.15 0.18 0.17 0.17 0.23 0.23 0.24 0.19 0.22 0.19 0.21 0.24 0.24 0.22 0.22 0.21 0.21 0.21 0.25 0.25 0.26 0.27 0.26 0.26 0.25 0.26 0.25 0.26 0.26 0.26 0.25
0.23 0.23 0.24 0.25 0.26 0.26 0.26 0.26 0.26 0.27 0.29 0.28 0.26 0.26 0.25 0.26 0.30 0.24 0.19 0.18 0.13 0.11 0.14 0.12 0.18 0.26 0.32 0.28 0.32 0.34 0.31 0.30 0.29 0.29 0.29 0.29 0.28 0.28 0.26 0.25 0.24 0.25 0.24 0.22 0.24 0.22 0.21 0.19 0.18 0.14 0.16 0.17 0.19 0.17 0.18 0.17 0.17 0.17 0.17 0.21 0.26 0.23 0.20 0.24 0.22 0.18 0.17 0.19 0.20 0.21 0.17 0.16 0.19 0.23 0.25 0.25 0.25 0.25 0.24 0.24 0.24 0.24 0.24 0.24 0.22 0.22 0.22
0.24 0.24 0.25 0.26 0.26 0.26 0.26 0.26 0.26 0.27 0.30 0.32 0.30 0.28 0.30 0.27 0.29 0.32 0.32 0.27 0.16 0.09 0.10 0.11 0.15 0.21 0.32 0.25 0.31 0.31 0.31 0.30 0.28 0.26 0.27 0.27 0.27 0.26 0.25 0.24 0.25 0.22 0.21 0.20 0.17 0.17 0.17 0.15 0.14 0.19 0.20 0.20 0.18 0.16 0.20 0.20 0.20 0.19 0.21 0.23 0.26 0.22 0.23 0.23 0.19 0.18 0.18 0.21 0.22 0.23 0.22 0.21 0.21 0.23 0.24 0.24 0.24 0.24 0.23 0.22 0.23 0.23 0.23 0.22 0.21 0.20 0.20
0.24 0.24 0.25 0.26 0.26 0.26 0.26 0.26 0.27 0.28 0.31 0.34 0.33 0.30 0.27 0.30 0.33 0.34 0.34 0.35 0.29 0.19 0.15 0.17 0.21 0.21 0.17 0.20 0.32 0.29 0.31 0.30 0.27 0.26 0.25 0.25 0.23 0.24 0.23 0.24 0.23 0.23 0.23 0.22 0.21 0.20 0.18 0.18 0.21 0.19 0.18 0.23 0.20 0.16 0.18 0.14 0.16 0.16 0.20 0.24 0.25 0.25 0.26 0.24 0.23 0.23 0.23 0.23 0.23 0.23 0.22 0.20 0.22 0.24 0.23 0.23 0.24 0.24 0.22 0.23 0.23 0.22 0.21 0.21 0.21 0.20 0.19
0.24 0.24 0.24 0.26 0.27 0.27 0.27 0.27 0.29 0.30 0.33 0.34 0.30 0.20 0.15 0.19 0.30 0.31 0.35 0.34 0.30 0.23 0.14 0.11 0.11 0.15 0.27 0.28 0.24 0.27 0.27 0.28 0.26 0.24 0.23 0.22 0.21 0.22 0.23 0.23 0.23 0.25 0.24 0.21 0.21 0.17 0.20 0.20 0.21 0.23 0.25 0.29 0.21 0.20 0.16 0.17 0.15 0.20 0.25 0.26 0.26 0.25 0.25 0.25 0.24 0.22 0.20 0.22 0.23 0.22 0.22 0.23 0.25 0.25 0.24 0.24 0.24 0.23 0.22 0.22 0.22 0.21 0.21 0.22 0.22 0.22 0.23
0.24 0.24 0.26 0.27 0.28 0.28 0.29 0.30 0.32 0.32 0.30 0.28 0.25 0.15 0.13 0.11 0.20 0.35 0.35 0.34 0.34 0.23 0.17 0.15 0.13 0.22 0.19 0.28 0.26 0.22 0.24 0.24 0.22 0.21 0.21 0.22 0.21 0.22 0.24 0.25 0.25 0.26 0.20 0.22 0.21 0.22 0.22 0.19 0.20 0.21 0.25 0.26 0.24 0.20 0.18 0.17 0.15 0.18 0.23 0.24 0.24 0.23 0.23 0.23 0.24 0.24 0.23 0.23 0.23 0.23 0.22 0.22 0.24 0.23 0.22 0.22 0.22 0.22 0.22 0.22 0.22 0.22 0.21 0.19 0.18 0.17 0.17
0.24 0.25 0.26 0.28 0.29 0.30 0.32 0.33 0.34 0.34 0.31 0.25 0.20 0.18 0.18 0.21 0.28 0.36 0.37 0.35 0.32 0.25 0.16 0.13 0.12 0.15 0.14 0.19 0.22 0.26 0.25 0.23 0.22 0.21 0.21 0.23 0.20 0.22 0.22 0.24 0.21 0.26 0.24 0.21 0.23 0.23 0.21 0.22 0.21 0.21 0.21 0.26 0.25 0.21 0.20 0.18 0.17 0.20 0.23 0.23 0.24 0.23 0.23 0.23 0.22 0.22 0.23 0.23 0.22 0.20 0.20 0.21 0.21 0.20 0.20 0.22 0.22 0.22 0.21 0.19 0.18 0.18 0.18 0.18 0.20 0.20 0.20
0.24 0.25 0.26 0.29 0.31 0.33 0.35 0.35 0.35 0.34 0.33 0.38 0.41 0.42 0.41 0.40 0.39 0.38 0.38 0.34 0.29 0.21 0.21 0.15 0.11 0.13 0.13 0.14 0.21 0.24 0.24 0.21 0.20 0.20 0.17 0.23 0.19 0.22 0.19 0.24 0.24 0.24 0.29 0.23 0.21 0.18 0.23 0.21 0.22 0.20 0.23 0.28 0.23 0.21 0.19 0.19 0.20 0.24 0.23 0.23 0.23 0.22 0.22 0.22 0.22 0.22 0.21 0.22 0.21 0.19 0.19 0.19 0.20 0.22 0.22 0.21 0.19 0.17 0.16 0.17 0.17 0.18 0.18 0.19 0.18 0.18 0.18
0.24 0.25 0.28 0.31 0.34 0.36 0.35 0.36 0.36 0.36 0.38 0.36 0.28 0.30 0.37 0.41 0.40 0.39 0.39 0.34 0.25 0.24 0.21 0.15 0.13 0.13 0.13 0.21 0.16 0.20 0.25 0.17 0.17 0.21 0.15 0.23 0.23 0.21 0.19 0.21 0.24 0.19 0.25 0.20 0.23 0.23 0.24 0.22 0.19 0.21 0.24 0.22 0.25 0.20 0.17 0.21 0.24 0.23 0.23 0.22 0.22 0.22 0.22 0.21 0.21 0.20 0.21 0.22 0.23 0.23 0.22 0.22 0.22 0.20 0.18 0.16 0.15 0.17 0.18 0.18 0.18 0.18 0.18 0.18 0.18 0.18 0.19
0.24 0.25 0.30 0.34 0.36 0.38 0.37 0.36 0.35 0.32 0.27 0.30 0.31 0.37 0.42 0.43 0.42 0.42 0.38 0.30 0.20 0.18 0.18 0.20 0.19 0.14 0.13 0.14 0.14 0.17 0.26 0.20 0.16 0.19 0.16 0.19 0.24 0.19 0.21 0.18 0.22 0.17 0.19 0.29 0.22 0.21 0.19 0.20 0.24 0.19 0.17 0.22 0.19 0.17 0.20 0.20 0.22 0.22 0.22 0.21 0.21 0.21 0.21 0.20 0.20 0.21 0.21 0.20 0.21 0.21 0.21 0.20 0.18 0.16 0.14 0.15 0.15 0.16 0.16 0.17 0.17 0.18 0.18 0.18 0.18 0.19 0.20
0.24 0.28 0.33 0.37 0.38 0.38 0.37 0.35 0.34 0.32 0.28 0.29 0.32 0.42 0.45 0.45 0.44 0.43 0.40 0.37 0.29 0.22 0.18 0.18 0.19 0.15 0.15 0.12 0.12 0.18 0.25 0.18 0.22 0.21 0.20 0.21 0.21 0.26 0.22 0.21 0.16 0.22 0.27 0.22 0.18 0.21 0.18 0.26 0.21 0.15 0.19 0.16 0.16 0.19 0.20 0.21 0.21 0.21 0.20 0.20 0.22 0.22 0.21 0.21 0.20 0.20 0.20 0.21 0.20 0.19 0.17 0.15 0.14 0.14 0.14 0.14 0.16 0.17 0.17 0.17 0.18 0.18 0.18 0.18 0.19 0.20 0.20
0.27 0.32 0.36 0.38 0.35 0.33 0.26 0.27 0.35 0.35 0.32 0.40 0.43 0.45 0.43 0.42 0.43 0.41 0.36 0.32 0.32 0.32 0.22 0.20 0.18 0.18 0.17 0.16 0.20 0.24 0.22 0.16 0.21 0.18 0.20 0.19 0.18 0.21 0.21 0.20 0.17 0.22 0.21 0.19 0.19 0.17 0.23 0.28 0.19 0.15 0.16 0.14 0.18 0.22 0.22 0.21 0.21 0.20 0.20 0.22 0.21 0.21 0.21 0.21 0.21 0.20 0.19 0.17 0.15 0.15 0.14 0.14 0.14 0.15 0.15 0.16 0.17 0.18 0.18 0.18 0.18 0.19 0.18 0.19 0.20 0.21 0.22
0.32 0.35 0.32 0.27 0.26 0.23 0.23 0.27 0.32 0.41 0.48 0.46 0.45 0.36 0.33 0.32 0.25 0.27 0.27 0.25 0.27 0.28 0.25 0.25 0.19 0.22 0.26 0.19 0.15 0.22 0.21 0.19 0.23 0.17 0.18 0.22 0.19 0.18 0.23 0.19 0.20 0.20 0.13 0.15 0.17 0.26 0.23 0.19 0.17 0.15 0.16 0.21 0.23 0.24 0.22 0.23 0.22 0.23 0.23 0.21 0.21 0.21 0.21 0.21 0.19 0.17 0.14 0.12 0.12 0.12 0.13 0.14 0.14 0.15 0.16 0.17 0.17 0.18 0.18 0.20 0.21 0.21 0.22 0.22 0.23 0.23 0.23
0.30 0.30 0.28 0.27 0.25 0.24 0.25 0.30 0.45 0.48 0.46 0.45 0.38 0.30 0.25 0.28 0.22 0.21 0.21 0.24 0.25 0.20 0.25 0.22 0.19 0.25 0.21 0.18 0.18 0.25 0.23 0.19 0.18 0.20 0.17 0.23 0.19 0.16 0.21 0.15 0.19 0.19 0.14 0.14 0.17 0.22 0.13 0.14 0.15 0.15 0.15 0.19 0.21 0.21 0.21 0.22 0.22 0.21 0.21 0.21 0.21 0.20 0.19 0.17 0.15 0.14 0.13 0.13 0.13 0.14 0.15 0.16 0.16 0.17 0.18 0.19 0.19 0.20 0.20 0.21 0.21 0.22 0.23 0.23 0.23 0.24 0.24
0.28 0.25 0.25 0.25 0.25 0.28 0.38 0.45 0.49 0.44 0.42 0.31 0.30 0.25 0.21 0.25 0.20 0.17 0.26 0.18 0.19 0.23 0.24 0.19 0.24 0.24 0.23 0.18 0.17 0.18 0.30 0.22 0.17 0.17 0.19 0.20 0.28 0.18 0.20 0.19 0.20 0.16 0.12 0.12 0.15 0.21 0.14 0.11 0.13 0.12 0.13 0.19 0.20 0.21 0.21 0.20 0.19 0.19 0.19 0.19 0.18 0.17 0.15 0.12 0.12 0.14 0.15 0.16 0.17 0.17 0.18 0.18 0.19 0.20 0.21 0.21 0.21 0.21 0.21 0.22 0.23 0.23 0.23 0.23 0.24 0.24 0.24
0.29 0.29 0.29 0.26 0.31 0.36 0.38 0.43 0.42 0.38 0.30 0.26 0.25 0.24 0.20 0.17 0.22 0.23 0.20 0.17 0.17 0.19 0.26 0.23 0.24 0.21 0.23 0.23 0.24 0.19 0.27 0.29 0.27 0.28 0.25 0.19 0.26 0.24 0.18 0.15 0.21 0.15 0.12 0.12 0.18 0.17 0.16 0.13 0.12 0.11 0.14 0.19 0.20 0.20 0.20 0.19 0.18 0.18 0.18 0.16 0.14 0.12 0.12 0.13 0.16 0.17 0.17 0.18 0.18 0.18 0.19 0.21 0.22 0.22 0.23 0.23 0.23 0.23 0.23 0.23 0.23 0.24 0.24 0.24 0.24 0.25 0.26
0.33 0.33 0.35 0.41 0.41 0.41 0.36 0.35 0.32 0.29 0.29 0.27 0.20 0.18 0.19 0.19 0.21 0.20 0.21 0.15 0.15 0.20 0.23 0.23 0.18 0.18 0.19 0.22 0.22 0.23 0.24 0.31 0.28 0.27 0.24 0.18 0.25 0.21 0.17 0.19 0.21 0.14 0.10 0.17 0.19 0.16 0.14 0.10 0.10 0.12 0.18 0.19 0.20 0.20 0.19 0.18 0.16 0.14 0.13 0.13 0.13 0.13 0.15 0.16 0.17 0.17 0.18 0.18 0.19 0.20 0.21 0.22 0.23 0.23 0.23 0.23 0.23 0.24 0.25 0.25 0.24 0.24 0.25 0.25 0.26 0.26 0.26
0.42 0.43 0.41 0.35 0.33 0.30 0.31 0.26 0.29 0.28 0.21 0.20 0.18 0.16 0.18 0.15 0.17 0.16 0.16 0.21 0.26 0.22 0.22 0.27 0.24 0.26 0.27 0.29 0.24 0.28 0.25 0.30 0.26 0.25 0.22 0.18 0.24 0.23 0.18 0.17 0.16 0.11 0.14 0.18 0.15 0.13 0.10 0.10 0.10 0.15 0.18 0.18 0.18 0.18 0.16 0.14 0.12 0.11 0.11 0.13 0.13 0.15 0.16 0.16 0.16 0.17 0.18 0.19 0.19 0.20 0.22 0.22 0.23 0.23 0.24 0.24 0.24 0.24 0.25 0.25 0.25 0.25 0.25 0.26 0.25 0.26 0.26
0.39 0.37 0.31 0.29 0.27 0.28 0.28 0.21 0.28 0.24 0.21 0.21 0.18 0.15 0.16 0.14 0.16 0.17 0.15 0.18 0.21 0.21 0.24 0.20 0.21 0.21 0.18 0.26 0.23 0.23 0.26 0.27 0.32 0.25 0.22 0.24 0.19 0.16 0.15 0.12 0.12 0.17 0.20 0.13 0.12 0.10 0.10 0.11 0.14 0.17 0.18 0.18 0.17 0.15 0.13 0.11 0.11 0.13 0.14 0.15 0.15 0.16 0.16 0.17 0.18 0.18 0.18 0.19 0.20 0.21 0.22 0.22 0.23 0.23 0.24 0.24 0.24 0.24 0.24 0.24 0.25 0.26 0.26 0.26 0.25 0.25 0.26
0.29 0.28 0.27 0.26 0.24 0.27 0.25 0.20 0.27 0.22 0.18 0.19 0.21 0.18 0.16 0.15 0.16 0.17 0.16 0.23 0.22 0.20 0.24 0.24 0.23 0.23 0.22 0.25 0.26 0.28 0.27 0.21 0.28 0.20 0.16 0.19 0.16 0.16 0.14 0.12 0.16 0.16 0.12 0.10 0.11 0.12 0.12 0.12 0.17 0.17 0.16 0.15 0.14 0.12 0.12 0.12 0.13 0.14 0.14 0.15 0.16 0.16 0.17 0.16 0.16 0.18 0.18 0.19 0.20 0.21 0.21 0.22 0.23 0.23 0.24 0.24 0.25 0.25 0.25 0.24 0.25 0.25 0.25 0.25 0.24 0.24 0.25
0.27 0.26 0.26 0.24 0.23 0.25 0.24 0.21 0.22 0.19 0.23 0.24 0.21 0.20 0.19 0.19 0.19 0.19 0.24 0.25 0.22 0.23 0.22 0.23 0.24 0.25 0.23 0.26 0.21 0.20 0.23 0.23 0.19 0.19 0.21 0.19 0.15 0.12 0.17 0.19 0.18 0.12 0.12 0.12 0.10 0.09 0.10 0.14 0.15 0.14 0.15 0.13 0.12 0.12 0.13 0.13 0.14 0.16 0.16 0.15 0.16 0.16 0.16 0.17 0.17 0.18 0.18 0.19 0.20 0.20 0.21 0.22 0.22 0.23 0.23 0.24 0.25 0.25 0.25 0.25 0.25 0.25 0.25 0.24 0.24 0.24 0.25
0.28 0.30 0.28 0.27 0.23 0.25 0.26 0.21 0.21 0.23 0.24 0.25 0.24 0.23 0.21 0.22 0.23 0.24 0.25 0.26 0.24 0.26 0.26 0.27 0.26 0.25 0.22 0.22 0.22 0.22 0.22 0.23 0.18 0.20 0.20 0.15 0.14 0.15 0.18 0.14 0.10 0.11 0.09 0.08 0.09 0.10 0.12 0.14 0.14 0.14 0.13 0.13 0.14 0.13 0.13 0.15 0.16 0.16 0.16 0.17 0.16 0.16 0.17 0.16 0.17 0.18 0.18 0.19 0.19 0.20 0.21 0.21 0.22 0.23 0.23 0.23 0.24 0.24 0.25 0.25 0.25 0.25 0.25 0.24 0.25 0.25 0.25
0.25 0.31 0.28 0.24 0.23 0.24 0.22 0.25 0.29 0.28 0.28 0.25 0.25 0.24 0.24 0.25 0.22 0.21 0.25 0.26 0.27 0.28 0.26 0.25 0.24 0.25 0.23 0.27 0.24 0.19 0.20 0.21 0.18 0.18 0.20 0.16 0.18 0.14 0.13 0.12 0.11 0.12 0.12 0.10 0.10 0.13 0.13 0.13 0.13 0.13 0.14 0.14 0.14 0.14 0.15 0.16 0.16 0.17 0.17 0.17 0.17 0.17 0.17 0.17 0.18 0.18 0.19 0.19 0.19 0.20 0.21 0.21 0.22 0.23 0.23 0.23 0.24 0.24 0.25 0.25 0.25 0.25 0.25 0.25 0.26 0.26 0.26
0.30 0.29 0.27 0.26 0.27 0.26 0.25 0.28 0.26 0.23 0.24 0.25 0.24 0.24 0.24 0.22 0.22 0.24 0.26 0.28 0.27 0.26 0.28 0.26 0.25 0.24 0.20 0.22 0.20 0.19 0.16 0.20 0.14 0.14 0.16 0.14 0.12 0.10 0.10 0.08 0.09 0.08 0.10 0.13 0.12 0.12 0.12 0.12 0.12 0.14 0.14 0.14 0.15 0.15 0.16 0.17 0.17 0.17 0.17 0.17 0.18 0.18 0.18 0.18 0.18 0.18 0.19 0.19 0.20 0.20 0.21 0.22 0.23 0.23 0.24 0.24 0.23 0.24 0.24 0.25 0.25 0.25 0.26 0.26 0.25 0.25 0.25
0.28 0.28 0.32 0.29 0.27 0.26 0.29 0.28 0.25 0.22 0.23 0.23 0.23 0.22 0.24 0.23 0.23 0.25 0.29 0.27 0.28 0.28 0.28 0.28 0.29 0.23 0.21 0.20 0.16 0.17 0.16 0.18 0.16 0.16 0.14 0.12 0.12 0.12 0.12 0.09 0.09 0.09 0.10 0.12 0.12 0.12 0.12 0.14 0.14 0.14 0.15 0.15 0.15 0.16 0.16 0.17 0.17 0.17 0.18 0.18 0.18 0.18 0.18 0.18 0.18 0.18 0.19 0.19 0.19 0.20 0.21 0.22 0.23 0.24 0.24 0.23 0.24 0.25 0.25 0.25 0.26 0.26 0.25 0.25 0.25 0.25 0.25
0.33 0.31 0.30 0.30 0.26 0.24 0.25 0.21 0.20 0.20 0.21 0.21 0.22 0.23 0.24 0.23 0.25 0.25 0.30 0.29 0.28 0.27 0.25 0.21 0.22 0.20 0.18 0.18 0.16 0.13 0.13 0.18 0.15 0.13 0.12 0.11 0.13 0.12 0.10 0.09 0.10 0.12 0.12 0.13 0.12 0.13 0.14 0.14 0.15 0.15 0.15 0.15 0.16 0.16 0.17 0.18 0.18 0.18 0.18 0.18 0.18 0.18 0.18 0.17 0.18 0.18 0.19 0.19 0.20 0.21 0.21 0.22 0.24 0.24 0.25 0.25 0.25 0.24 0.24 0.25 0.25 0.25 0.25 0.25 0.25 0.26 0.26
0.29 0.27 0.27 0.29 0.30 0.27 0.26 0.26 0.25 0.24 0.23 0.24 0.24 0.26 0.27 0.25 0.27 0.29 0.32 0.30 0.28 0.24 0.21 0.24 0.21 0.19 0.17 0.15 0.16 0.17 0.18 0.16 0.13 0.13 0.11 0.12 0.14 0.11 0.11 0.11 0.12 0.12 0.12 0.12 0.13 0.14 0.14 0.15 0.16 0.16 0.16 0.16 0.17 0.17 0.18 0.18 0.17 0.17 0.17 0.17 0.17 0.18 0.18 0.18 0.18 0.18 0.19 0.19 0.20 0.21 0.22 0.23 0.25 0.25 0.25 0.25 0.25 0.24 0.23 0.22 0.23 0.24 0.25 0.25 0.26 0.27 0.28
Wind_Speed
11 11 11 10 8 7 6 5 5 5 5 5 5 6 6 7 6 7 7 7 7 7 7 8 9 9 8 8 9 9 10 10 10 11 11 11 12 12 12 14 14 15 15 15 16 17 16 16 18 19 19 19 20 21 22 22 22 23 23 23 24 24 24 26 28 28 26 23 22 21 21 22 23 23 24 25 26 25 25 26 26 27 27 26 25 26 29
11 11 11 10 9 8 6 5 5 4 5 5 6 6 7 7 8 8 9 8 7 7 8 7 8 8 8 8 9 9 10 11 11 11 12 12 12 13 13 14 15 15 16 16 17 18 17 17 18 19 19 19 19 21 22 22 22 23 23 24 25 24 24 26 28 28 27 25 23 23 23 24 25 25 25 25 26 25 25 25 24 25 27 26 25 26 29
11 11 11 11 10 9 7 5 4 3 3 4 6 6 6 7 7 9 10 10 8 8 8 7 7 7 7 8 9 9 9 11 11 11 13 13 13 14 14 15 15 16 16 16 17 18 18 18 18 19 19 19 19 21 22 22 22 23 24 24 24 24 25 25 25 25 26 26 25 25 26 27 26 27 27 26 25 24 24 24 24 24 26 26 25 27 31
12 12 12 11 11 10 8 6 4 3 3 3 5 6 6 6 7 7 9 10 10 9 8 8 8 7 7 8 10 10 10 10 11 12 13 13 14 14 15 15 15 16 17 17 17 17 17 18 19 20 20 20 20 21 22 22 22 23 24 24 24 24 25 24 23 23 24 26 26 26 27 28 28 29 29 26 23 22 23 24 23 24 25 26 27 29 33
12 12 12 12 12 11 9 7 5 4 3 3 5 6 6 6 7 6 6 8 9 9 10 10 9 8 8 9 10 12 12 11 12 12 13 14 14 14 14 16 16 17 18 18 18 19 18 18 19 20 20 21 20 21 21 22 22 23 23 23 23 25 25 24 23 23 24 26 27 27 27 27 28 29 28 25 22 20 22 23 23 24 25 26 29 32 34
13 13 13 13 13 13 12 10 7 5 4 4 5 7 7 6 6 6 6 7 8 8 10 10 10 10 10 9 10 12 12 12 12 13 13 13 14 14 15 16 18 18 19 19 20 21 20 19 19 20 21 21 21 21 21 21 21 22 22 22 23 25 25 24 24 24 26 26 27 27 26 27 28 27 26 27 25 22 21 22 23 23 24 26 31 34 34
14 14 14 15 15 14 14 12 10 7 6 5 6 8 8 7 7 7 8 7 7 8 9 9 10 11 11 10 11 12 12 12 13 13 13 14 14 16 17 18 20 19 19 20 20 22 22 21 21 21 21 22 22 22 21 21 21 22 22 23 23 24 25 25 25 26 27 27 26 26 26 27 27 25 24 27 27 24 23 23 23 23 25 29 32 34 35
15 16 16 16 15 15 15 14 12 10 8 8 8 8 8 7 7 7 8 9 9 9 9 9 9 11 11 11 11 12 12 13 13 13 14 15 16 17 18 20 21 20 19 20 20 21 22 23 22 22 22 22 22 22 22 22 22 22 23 23 23 24 25 25 26 28 28 27 27 26 27 28 27 25 26 28 28 26 25 24 24 25 28 30 32 34 34
15 16 16 16 16 15 15 15 14 11 9 9 9 9 8 8 7 7 8 9 10 10 10 10 10 11 12 12 11 12 13 13 14 14 14 15 17 18 19 20 21 19 19 20 20 21 22 23 23 22 22 22 22 22 22 23 23 23 23 23 23 25 26 26 27 29 29 29 30 31 31 29 26 26 28 29 29 28 27 25 25 26 29 32 32 33 34
15 15 15 16 16 16 16 15 15 13 10 9 9 8 8 8 8 8 8 9 10 10 10 10 10 11 12 13 12 13 13 14 14 15 15 16 17 18 19 20 20 20 20 21 21 23 23 23 23 22 22 22 23 22 23 23 23 24 23 23 24 25 26 27 27 28 29 31 32 34 32 27 24 26 28 29 29 29 29 28 27 27 29 31 32 33 35
14 14 15 15 15 16 16 16 16 14 12 10 9 8 7 7 8 8 9 9 10 11 11 11 12 12 12 13 13 14 14 14 15 16 16 16 17 19 19 20 21 21 21 22 23 24 24 24 23 22 21 21 22 21 22 22 22 22 23 24 24 25 26 27 27 27 30 32 34 33 29 25 26 28 28 29 30 31 32 32 31 31 31 32 34 36 37
13 13 14 15 15 16 16 16 16 15 13 10 9 9 8 8 8 9 9 10 10 11 11 12 13 13 13 14 15 15 15 16 16 17 18 18 19 19 20 20 21 22 22 23 24 24 24 22 21 20 20 20 21 20 21 22 22 22 23 25 26 26 27 27 27 27 30 32 32 29 27 27 31 32 30 29 30 31 33 35 34 33 34 36 37 37 37
12 13 13 14 15 15 15 15 15 15 14 11 10 10 9 9 9 10 10 11 11 12 12 12 13 14 15 15 15 16 16 17 17 17 18 19 20 20 20 21 22 22 23 24 24 23 22 21 20 20 19 20 21 20 20 22 22 23 24 25 26 28 28 28 28 28 29 30 28 27 29 33 35 33 30 29 29 31 35 38 37 36 37 38 37 36 37
12 12 13 14 15 15 15 15 14 14 14 12 11 11 10 10 11 11 11 11 12 12 12 13 14 14 15 16 16 16 17 17 18 18 19 20 20 21 21 22 22 23 23 24 23 22 22 22 22 22 22 22 22 22 22 22 23 24 25 25 26 28 28 29 29 28 28 29 30 30 33 34 33 30 29 29 30 32 35 38 40 40 39 36 35 37 40
11 12 13 13 14 15 15 14 14 14 14 13 12 12 12 12 12 12 12 11 11 13 14 14 14 14 15 16 17 17 17 18 18 19 19 20 21 21 21 22 22 22 23 23 22 22 22 23 24 24 24 24 24 24 24 25 25 25 26 27 27 28 29 29 29 28 28 30 31 32 31 31 32 31 29 29 32 33 34 38 42 41 37 35 37 41 45
11 12 13 13 14 14 14 15 15 14 14 13 12 12 13 13 13 13 13 13 13 14 14 15 15 15 16 16 17 18 19 19 20 20 19 20 20 21 21 22 22 22 23 22 21 22 23 23 23 24 25 24 25 26 27 28 27 26 27 28 29 29 30 30 30 30 30 30 30 30 28 31 34 34 30 30 33 35 36 39 40 36 35 39 43 46 49
11 12 13 13 14 14 14 15 15 15 14 14 13 13 14 15 14 14 14 14 14 14 14 14 15 16 16 17 18 18 19 20 20 21 20 20 20 21 21 21 21 22 22 22 22 22 23 23 24 25 25 24 26 27 28 29 30 29 29 29 29 29 30 30 30 32 31 30 30 30 31 34 37 35 32 32 35 37 38 38 36 37 41 46 48 49 51
11 11 12 13 14 14 15 15 15 15 15 14 13 14 15 16 15 15 15 14 15 15 15 15 16 17 18 18 19 19 20 20 20 21 20 20 20 21 22 22 21 21 22 22 23 23 23 23 24 26 26 25 26 27 29 29 30 31 32 32 31 30 30 30 32 33 33 31 31 32 34 36 36 34 34 36 38 39 38 38 41 46 50 52 51 51 52
11 11 12 13 14 15 15 15 16 16 15 15 14 14 16 17 17 16 15 15 15 15 15 16 17 17 18 19 19 19 20 20 21 21 21 20 20 22 22 20 21 22 22 22 23 23 24 24 25 26 27 27 27 29 30 30 30 32 33 33 32 31 31 31 32 33 33 32 32 34 36 35 34 35 37 39 40 40 41 45 50 52 53 52 52 52 52
11 11 12 13 13 15 16 16 16 16 16 16 15 15 16 18 18 17 16 16 15 15 15 17 17 18 19 19 20 20 20 20 21 21 21 21 22 23 21 20 21 22 22 23 24 24 25 26 27 27 28 29 29 30 31 32 32 32 32 32 32 31 32 33 32 32 33 33 32 32 34 34 36 39 40 40 42 44 47 51 52 52 52 52 53 53 54
10 11 12 13 14 15 16 17 17 17 17 17 16 16 16 18 19 18 17 17 16 15 16 17 17 18 19 20 20 21 21 21 21 21 21 22 22 22 21 21 23 23 23 25 25 25 25 27 28 28 28 30 30 30 32 34 33 31 30 32 32 31 31 33 34 33 33 34 33 34 38 40 43 44 43 43 46 48 49 50 50 51 52 53 54 55 57
10 11 12 13 14 15 16 17 18 19 19 18 17 16 17 18 18 19 19 18 17 16 16 16 17 18 19 19 20 21 21 21 21 21 22 22 22 22 21 22 23 23 24 25 26 26 27 28 28 29 30 31 31 32 33 33 34 32 31 31 32 32 32 34 35 34 35 37 38 40 43 45 46 45 45 47 48 48 49 51 52 53 54 55 56 57 58
10 11 12 13 14 15 17 18 19 19 19 19 18 17 17 18 19 19 18 17 17 16 16 16 17 18 19 19 20 20 21 21 21 21 22 22 21 22 22 22 23 24 24 25 26 27 28 29 29 31 31 31 32 33 33 33 33 34 33 32 34 34 34 35 36 37 38 40 42 42 44 47 47 46 46 47 49 50 52 54 55 55 56 57 57 58 59
10 11 13 14 15 16 17 18 19 19 20 19 18 17 17 18 19 18 17 17 17 17 16 17 18 18 19 19 19 20 21 21 22 22 22 22 22 22 22 23 24 25 25 26 27 28 29 30 30 31 31 31 31 33 34 34 34 35 35 36 36 35 36 37 39 40 41 41 41 43 47 48 48 48 50 51 53 54 55 55 56 57 58 59 59 60 61
10 12 13 14 15 16 17 18 19 20 20 20 19 18 18 18 19 18 17 17 18 17 17 17 18 18 19 19 19 20 21 21 22 22 22 23 23 23 24 24 25 27 27 28 29 29 30 30 30 31 32 32 31 32 34 34 35 36 36 37 38 37 38 40 40 41 42 42 44 48 51 50 49 52 54 56 57 58 58 58 59 60 61 61 62 62 63
11 12 14 15 16 17 18 18 19 19 19 20 19 18 18 18 19 19 18 18 18 17 17 17 18 18 19 19 19 20 21 22 23 23 23 24 24 25 25 26 27 28 29 30 30 30 30 31 31 31 32 31 32 33 34 35 37 37 37 39 40 40 40 40 41 43 44 44 48 52 54 53 54 56 57 58 60 61 61 62 63 63 64 65 65 65 66
12 13 14 15 17 18 18 19 19 19 19 19 19 18 18 19 19 19 19 18 18 18 17 18 17 18 18 19 19 20 21 23 24 24 24 25 25 26 27 27 28 29 30 30 31 30 31 31 31 31 32 32 33 35 35 36 37 37 38 39 41 40 40 41 43 44 45 46 50 53 53 54 56 58 59 60 62 63 64 65 66 66 66 67 67 68 68
12 14 15 16 17 18 19 19 19 19 18 18 19 18 19 19 20 20 19 19 19 18 18 17 17 18 18 19 19 21 22 24 25 25 25 25 26 27 28 29 30 30 30 31 31 31 31 31 32 31 32 33 34 35 35 36 36 36 37 39 40 40 41 43 44 45 46 49 52 53 53 55 58 60 61 63 63 64 65 67 67 67 68 68 68 68 67
13 14 15 16 17 18 19 19 19 19 19 19 19 18 18 19 20 21 20 20 19 19 18 18 18 19 19 19 20 22 23 24 26 26 26 26 27 28 29 30 31 31 31 32 32 32 32 32 32 33 33 33 35 36 36 37 37 36 37 39 40 41 43 45 46 47 49 51 54 55 56 58 61 62 64 65 65 66 68 69 69 68 68 68 67 67 67
14 15 16 16 17 18 19 19 20 20 20 19 19 19 18 19 20 21 21 21 20 19 19 19 19 19 20 20 21 23 24 25 26 26 27 27 28 29 30 31 32 32 32 32 32 33 33 33 33 34 33 33 35 36 37 38 37 36 38 41 42 44 46 47 48 49 51 54 56 58 60 61 63 64 65 66 68 70 70 70 70 69 69 69 68 66 66
14 15 16 17 17 18 19 20 21 21 21 20 20 20 19 19 21 22 22 21 21 20 20 20 20 20 20 21 22 23 25 26 27 27 28 28 29 31 31 32 32 32 32 33 33 33 34 34 34 34 34 34 35 37 38 39 39 39 42 45 46 47 49 50 50 52 54 56 59 61 61 63 64 66 68 70 72 73 71 70 70 70 69 68 65 63 62
15 16 16 17 17 18 19 20 21 21 21 20 20 19 19 20 22 23 23 22 21 20 20 20 20 20 21 21 22 24 26 27 27 28 29 29 31 32 32 32 33 33 33 33 33 33 34 34 35 35 35 34 35 38 39 40 40 42 46 48 48 50 52 52 53 55 56 59 61 63 64 65 67 69 71 72 73 72 71 70 69 68 66 64 62 61 60
16 16 16 17 18 19 20 20 21 21 21 20 20 20 21 22 22 23 23 22 21 21 21 21 21 21 22 22 22 24 27 28 28 29 30 30 32 33 33 33 34 33 33 33 33 34 35 35 35 36 36 35 37 39 39 40 41 44 47 49 50 52 53 54 55 57 58 60 62 63 66 68 70 71 72 73 72 70 68 67 66 64 62 61 61 60 59
16 17 17 17 18 19 20 21 22 21 21 21 21 21 22 23 23 23 22 21 21 21 21 21 21 22 22 22 22 25 28 29 29 30 31 31 33 34 35 34 34 33 33 33 34 35 36 35 35 36 37 37 38 39 39 41 44 47 48 50 52 53 55 56 57 59 60 62 64 65 68 70 72 72 72 71 69 66 65 64 63 61 60 59 59 58 58
17 17 17 18 19 20 20 21 22 22 22 22 22 22 23 23 23 22 22 21 21 21 21 21 22 22 23 24 24 26 29 30 30 31 32 33 33 35 35 34 34 34 34 35 35 36 36 36 37 38 38 38 39 39 41 44 47 49 50 52 54 55 57 59 60 62 64 65 67 68 70 71 72 72 70 68 65 64 62 61 60 59 58 57 56 56 55
18 18 18 19 20 20 21 22 23 23 23 23 23 23 23 22 22 22 21 21 21 21 21 21 22 22 24 25 25 28 31 31 30 32 33 33 34 35 34 34 34 35 35 36 36 36 36 36 38 39 39 39 40 40 42 46 49 51 52 54 55 57 59 61 64 65 67 69 70 70 71 72 71 69 67 65 63 61 60 59 58 56 56 55 55 54 53
18 19 19 20 21 21 21 22 24 24 24 23 23 23 23 22 22 21 21 21 21 21 21 21 22 23 25 25 27 30 31 31 32 33 33 33 34 35 34 34 36 37 37 37 36 36 37 37 38 40 40 40 40 41 44 47 49 51 53 55 57 59 61 63 65 68 70 72 72 72 72 71 69 66 63 63 62 59 58 57 56 54 54 54 53 52 52
19 19 20 21 21 21 22 23 24 25 24 24 23 23 22 22 21 21 21 22 22 22 22 22 22 24 25 26 28 31 32 32 33 33 33 34 35 35 34 35 37 38 38 38 37 37 38 39 39 41 41 40 40 43 47 49 50 51 53 56 58 60 63 65 68 70 72 73 73 73 71 69 66 63 62 60 59 57 56 55 54 53 52 52 51 51 50
20 20 21 21 22 22 23 24 25 25 24 23 23 22 22 22 22 21 22 22 22 22 23 23 23 25 27 28 29 31 32 32 33 34 34 34 35 35 36 37 37 38 39 38 37 38 40 40 40 41 41 40 42 46 50 51 52 53 55 58 60 63 66 69 70 70 71 71 72 71 68 64 61 60 58 56 55 55 54 54 53 52 51 50 50 50 49
20 21 21 22 22 23 24 25 25 24 23 23 23 22 22 22 22 22 22 22 22 23 24 24 25 26 28 29 30 31 32 33 34 34 35 35 35 35 37 37 37 38 39 38 38 40 41 41 41 42 42 42 45 49 51 53 54 56 58 61 64 67 69 70 70 70 71 71 70 67 63 59 56 55 54 53 53 54 54 53 52 51 51 50 50 50 49
21 21 22 23 24 24 24 24 24 23 23 23 23 22 22 22 22 22 23 23 22 23 25 26 27 27 29 30 31 32 33 34 34 34 35 35 35 36 37 38 38 38 38 38 40 42 41 42 42 42 42 44 48 51 53 55 58 60 62 65 68 70 70 70 70 70 71 69 66 62 58 56 54 53 52 53 53 53 53 53 52 51 51 51 50 50 50
22 22 23 24 24 24 24 24 24 23 23 23 22 22 22 22 22 23 23 23 24 25 26 27 28 30 31 32 32 33 34 34 34 34 35 35 36 36 37 38 38 38 38 40 42 42 41 42 43 43 44 47 51 53 55 58 61 64 67 69 70 70 70 70 70 70 69 66 62 58 56 54 53 53 53 54 54 53 53 53 52 52 51 51 50 50 50
23 23 24 24 24 24 23 23 23 23 23 22 23 23 23 23 23 23 24 24 24 26 27 28 30 31 32 32 33 33 34 34 34 34 35 36 36 37 37 37 38 38 40 42 42 41 42 43 44 44 46 50 53 55 59 63 66 68 70 71 71 70 70 70 70 70 67 64 60 57 55 54 53 53 54 54 55 55 54 54 53 52 51 51 50 49 49
23 23 24 24 23 23 23 23 23 23 22 23 23 23 23 23 23 23 24 25 25 27 28 30 31 32 32 33 34 34 33 34 34 35 35 36 36 37 37 38 39 40 42 42 41 41 43 44 44 46 50 54 57 61 65 67 68 69 70 71 71 70 70 70 70 68 65 62 58 56 54 54 54 54 54 54 55 55 55 54 53 51 50 50 49 49 49
23 24 24 23 23 23 23 23 23 23 23 23 23 23 24 24 24 24 25 26 27 28 29 31 32 32 33 34 34 33 33 35 35 34 35 36 37 36 37 39 40 41 41 41 42 43 44 45 46 50 55 59 62 66 67 68 68 70 70 71 71 71 71 71 69 66 62 60 58 56 55 54 54 54 54 54 55 54 54 53 52 50 50 49 49 48 48
23 23 24 23 23 23 23 23 23 23 23 24 24 24 24 24 24 25 26 27 28 29 30 32 33 33 34 34 33 33 34 35 35 34 35 36 37 37 39 40 41 40 41 42 43 44 45 47 51 55 60 63 66 67 68 68 70 70 70 70 70 71 71 70 68 64 61 59 57 55 54 54 54 54 55 55 55 54 53 52 51 50 49 49 49 48 48
23 23 23 23 23 23 23 23 24 24 24 24 24 24 24 25 25 26 27 28 29 30 31 32 33 33 33 33 33 33 34 34 35 35 35 36 37 39 40 40 40 40 41 43 44 46 48 51 56 60 63 65 67 68 68 69 69 70 69 69 70 71 71 69 66 63 60 58 57 55 54 54 54 55 55 55 55 54 53 52 51 50 49 49 48 47 47
23 24 23 23 23 24 24 24 24 24 24 24 24 25 25 26 26 27 27 28 29 30 32 32 33 32 32 32 33 34 34 34 35 35 36 37 38 39 39 40 40 41 41 43 45 48 52 56 60 63 65 66 67 68 68 68 69 70 70 70 70 71 70 68 64 61 60 58 56 55 54 55 55 56 55 55 55 54 53 52 51 49 48 47 47 46 46
23 23 23 22 23 24 24 24 24 25 25 25 25 25 26 26 27 27 28 28 29 31 32 32 32 32 32 33 33 34 34 34 35 36 37 37 38 39 39 41 42 43 44 45 48 53 57 60 63 65 66 67 67 68 68 69 70 71 71 70 70 70 69 66 63 61 59 57 55 55 55 56 56 56 55 55 54 53 53 51 50 48 47 46 46 46 46
24 23 23 23 23 24 24 24 25 25 25 25 26 26 26 27 27 28 28 29 30 31 31 31 32 32 32 33 33 34 34 34 35 37 37 37 38 39 40 42 43 45 47 50 54 57 60 62 63 65 67 67 68 68 69 70 71 72 72 71 71 70 67 65 63 60 58 56 56 56 56 56 56 56 55 55 54 53 52 49 47 46 46 46 46 45 45
24 24 23 23 24 24 24 25 26 26 26 26 26 26 27 27 28 28 29 30 31 31 30 31 32 32 33 33 34 34 34 35 36 37 37 38 38 39 41 43 46 49 52 54 57 59 61 62 64 65 67 68 68 69 70 72 73 73 72 72 71 69 66 63 61 58 57 56 56 56 56 56 56 56 55 53 52 50 48 46 45 45 46 45 45 45 44
24 24 24 24 24 24 25 26 26 26 26 26 27 27 27 28 28 28 29 30 30 30 30 31 31 32 33 33 34 35 35 36 36 37 38 38 38 40 42 46 49 52 55 56 58 60 61 63 64 66 67 68 69 71 72 73 73 73 73 72 71 68 64 62 59 58 57 56 57 57 57 57 56 54 52 50 48 46 45 44 45 45 45 45 45 44 44
Wind_Direction
44 44 44 44 47 49 55 64 69 72 68 58 50 43 33 27 24 16 13 15 10 11 12 0 357 3 358 352 354 352 349 349 349 349 350 348 345 346 346 345 345 346 345 342 342 343 339 338 341 340 339 340 340 339 339 338 337 337 337 339 340 337 334 332 331 330 331 334 336 334 329 326 325 323 322 321 319 315 311 310 311 310 307 307 306 302 307
41 40 39 38 39 40 45 53 61 67 63 51 44 45 39 31 27 18 9 5 359 358 0 358 359 359 354 357 359 356 357 357 354 353 353 351 346 345 347 346 345 345 344 341 342 343 341 339 340 340 337 339 339 338 338 338 338 339 339 340 340 338 335 335 333 333 335 335 335 334 329 327 327 325 322 321 321 319 315 313 312 308 305 305 307 307 309
39 37 36 35 34 34 35 37 43 50 47 38 35 37 30 18 17 17 14 14 10 3 2 4 7 4 2 6 3 358 360 359 354 351 351 350 346 345 347 346 344 343 342 340 340 341 340 339 339 338 336 337 338 338 337 336 337 340 340 339 339 337 335 336 334 335 336 335 335 333 330 328 327 325 324 323 323 320 317 316 314 310 309 308 307 307 310
36 35 34 33 30 29 29 30 30 28 22 15 16 16 6 358 1 5 12 22 25 22 17 13 12 7 3 6 3 357 358 355 351 349 349 349 347 344 345 344 341 341 341 339 339 339 337 337 337 336 335 336 338 337 336 335 336 338 338 337 337 335 335 334 332 331 332 331 330 330 329 328 326 325 325 326 327 324 319 317 313 312 313 311 308 309 311
34 33 32 32 30 28 27 28 30 35 34 21 17 17 9 4 6 1 6 20 24 25 23 14 10 4 359 2 1 356 356 353 349 349 349 349 347 343 344 345 343 342 341 339 338 337 335 335 337 336 334 336 336 335 336 335 335 336 337 336 336 334 334 336 334 329 327 327 327 328 328 327 324 324 326 329 331 329 323 317 313 314 314 311 313 316 314
36 34 34 34 34 33 33 35 37 41 40 29 29 29 22 22 26 18 15 19 15 17 18 12 13 12 5 3 359 355 356 355 350 349 347 346 346 343 343 346 346 343 340 337 336 336 335 335 336 336 335 335 335 335 335 335 336 337 336 336 335 333 333 338 337 330 326 326 326 326 327 326 324 324 326 328 328 328 326 320 316 316 312 309 315 318 316
41 41 41 41 40 40 41 42 45 50 51 45 46 44 39 43 43 30 27 29 21 17 13 7 12 12 5 3 1 356 356 356 351 347 343 343 346 343 342 344 344 342 338 335 335 336 335 334 334 335 335 334 334 334 334 335 336 336 335 335 335 333 333 337 335 329 327 325 325 326 328 326 325 325 325 326 325 324 324 321 318 316 311 310 314 315 315
50 49 48 47 45 44 43 43 45 50 54 54 52 48 42 43 44 39 39 35 24 16 9 2 7 8 1 360 358 352 351 352 348 344 343 343 344 342 341 340 339 337 335 333 334 337 336 331 331 334 334 333 334 334 335 337 336 335 335 336 335 333 334 337 334 330 330 330 329 330 328 325 324 324 325 326 326 324 324 322 320 319 315 314 314 314 316
55 52 50 47 45 43 42 41 40 42 50 54 50 47 44 44 45 44 39 24 11 9 7 1 2 3 358 356 353 348 348 348 343 341 342 341 340 340 338 337 336 335 334 333 334 337 334 329 328 330 330 331 334 334 335 337 335 334 335 335 334 333 333 335 334 331 331 334 334 332 328 324 322 323 324 326 326 326 325 323 322 321 318 317 317 317 319
54 51 48 45 43 41 40 39 38 39 47 53 47 44 45 42 38 33 26 16 5 3 3 358 357 357 354 351 349 346 345 343 339 338 339 337 338 337 335 334 334 334 334 335 334 333 330 327 327 328 326 327 329 328 330 332 332 332 334 334 334 335 333 333 335 331 329 333 334 331 329 328 328 328 327 326 325 324 323 322 321 319 318 319 319 319 320
51 48 45 43 41 39 38 38 38 37 42 46 44 41 38 34 32 26 19 13 4 359 358 359 358 354 349 348 346 343 342 340 338 338 338 337 337 336 334 334 334 333 334 335 333 330 329 329 328 328 327 327 327 327 328 330 328 329 331 332 334 335 332 332 333 330 328 331 332 331 330 332 333 331 328 324 323 323 322 322 320 318 317 316 316 316 319
48 44 42 41 40 39 38 37 37 36 36 38 41 41 33 25 24 20 12 9 3 358 358 358 354 351 348 346 343 341 340 338 337 336 335 335 335 335 334 334 333 333 334 333 331 330 331 331 331 331 331 330 330 329 329 329 329 329 330 331 333 333 330 330 331 329 327 329 333 333 333 333 330 328 326 325 324 323 320 319 319 318 317 315 315 316 317
46 43 41 40 39 38 37 36 36 36 34 34 36 37 31 22 20 18 15 11 2 357 358 356 350 348 346 343 340 340 340 338 336 333 332 333 334 334 334 334 333 334 334 332 331 331 331 332 333 334 333 332 332 331 329 327 329 330 329 329 329 330 330 330 329 328 327 329 332 330 327 328 326 324 327 329 327 324 321 319 319 321 319 317 317 317 317
45 42 40 39 37 36 36 35 36 36 35 34 34 33 26 18 14 11 9 7 359 353 354 352 348 345 343 342 340 338 338 337 335 334 333 334 334 334 335 336 335 335 335 334 333 333 333 334 334 334 333 333 333 333 332 330 329 329 329 328 328 328 329 329 328 327 327 326 325 323 323 326 328 327 329 331 328 326 323 319 319 321 320 318 317 316 317
44 41 39 37 35 35 35 35 35 35 33 32 30 28 23 17 11 7 6 7 360 351 347 346 346 345 343 342 340 337 337 337 336 335 334 334 334 335 337 337 337 336 336 336 335 335 336 336 336 336 335 334 334 333 332 332 331 330 329 328 327 325 325 327 326 325 325 323 323 324 325 326 329 330 330 330 328 327 323 318 318 322 322 319 316 316 317
44 40 38 36 34 34 34 34 33 31 28 25 23 23 19 13 8 4 2 1 355 349 346 346 346 345 343 342 341 339 338 338 337 335 335 336 336 337 338 338 338 337 337 336 335 336 338 338 337 336 334 333 332 330 329 330 330 330 329 328 326 323 323 324 322 320 321 320 320 322 322 322 324 326 327 327 326 324 321 317 318 322 322 319 317 316 316
41 39 37 35 33 32 31 30 28 26 24 20 17 16 14 9 4 0 358 357 355 351 348 346 345 343 342 341 341 340 338 338 338 337 337 338 339 338 337 337 337 338 338 337 337 337 338 338 337 334 332 333 332 329 329 329 328 328 328 327 325 324 322 322 319 318 318 317 316 318 318 318 321 323 324 324 323 322 319 316 318 321 320 318 317 316 315
39 36 35 33 31 29 26 25 23 21 19 16 13 12 10 5 0 357 355 356 355 350 346 346 344 343 342 341 341 341 339 339 339 338 337 339 340 339 338 337 338 338 338 338 338 339 338 337 336 333 332 333 331 328 328 328 326 326 326 325 324 324 322 320 319 318 317 315 314 315 317 319 322 324 324 322 320 319 317 314 316 319 318 317 317 316 316
36 33 31 29 26 24 21 19 17 16 14 10 6 6 4 1 357 355 352 352 353 350 346 346 345 345 344 343 342 342 341 340 340 339 339 340 340 338 337 337 339 339 338 338 338 338 337 336 336 333 330 330 330 328 327 326 325 325 325 324 324 323 322 321 320 319 318 317 315 315 318 322 324 323 321 320 319 318 315 314 316 317 317 317 317 316 317
31 28 26 22 20 18 16 14 11 10 8 6 2 0 0 358 356 354 351 351 354 354 349 346 347 347 346 345 344 343 341 341 341 341 341 341 339 337 336 338 340 340 338 338 338 338 336 334 334 332 329 328 329 328 326 324 323 323 323 323 323 323 321 320 320 321 320 318 317 318 320 323 324 321 319 319 318 317 316 316 316 317 317 318 317 316 316
26 22 19 16 13 12 10 9 6 3 1 0 357 355 356 355 354 354 352 350 352 353 350 348 348 349 348 348 347 345 343 343 343 342 341 340 339 339 339 339 339 339 339 338 337 336 334 333 332 330 328 327 327 326 325 324 324 325 324 323 323 323 320 319 321 322 320 317 317 318 318 319 321 320 318 319 319 319 319 319 318 317 318 317 315 315 315
20 16 13 10 8 6 4 3 1 359 358 356 352 350 351 350 351 353 353 352 353 354 352 351 352 352 351 350 349 347 346 345 343 342 340 340 340 341 340 338 337 338 337 335 333 333 332 331 330 328 327 326 325 324 323 323 323 326 327 324 322 321 321 320 319 319 316 314 314 315 315 318 321 320 320 321 322 321 321 319 317 316 316 315 314 314 314
12 9 7 5 2 0 359 358 358 357 355 352 350 349 348 348 348 350 352 355 357 357 355 353 352 352 351 350 349 348 347 345 343 342 341 340 340 339 338 336 336 335 334 332 331 330 329 329 328 327 326 326 325 324 323 322 321 323 324 322 320 320 321 320 318 316 314 313 313 316 318 320 321 320 321 321 320 319 319 318 317 316 315 314 314 313 313
4 3 1 359 357 355 354 354 354 354 353 349 347 347 346 346 347 348 349 351 352 353 352 350 349 349 349 349 348 347 346 344 343 342 340 338 338 336 334 334 333 331 330 330 329 329 328 328 328 327 326 326 325 324 322 321 322 323 323 322 322 323 323 320 317 316 315 315 317 321 321 321 320 319 319 319 318 317 317 317 316 315 314 314 313 313 312
357 356 354 352 352 352 350 349 349 351 351 349 347 346 345 345 345 344 346 347 347 347 347 346 346 346 346 346 345 345 344 342 341 339 338 336 334 333 332 331 330 329 329 328 328 327 326 326 326 325 325 325 324 323 322 322 322 323 323 322 322 322 322 320 318 317 315 315 319 322 320 318 318 317 317 318 318 317 317 316 315 315 314 313 313 312 312
349 349 348 348 347 346 346 345 345 346 349 350 349 347 347 347 346 344 344 343 342 341 342 342 342 342 341 341 342 341 341 340 338 336 335 333 331 330 330 329 329 328 328 327 326 325 325 325 325 324 324 325 325 324 323 323 323 322 322 322 322 321 319 319 319 317 315 316 319 320 318 317 317 317 316 317 317 316 316 316 315 314 314 313 313 312 312
344 344 343 343 343 342 342 342 342 343 345 348 350 349 348 348 347 345 343 339 336 336 338 338 338 337 337 337 338 337 338 338 336 334 332 331 330 329 328 327 327 327 327 326 326 326 325 326 325 324 323 325 325 324 323 323 323 322 321 323 324 323 321 320 320 318 318 318 320 320 319 317 318 318 318 318 317 317 316 316 316 315 315 314 313 312 312
340 340 340 340 340 341 341 341 341 342 342 343 344 346 347 348 347 344 342 338 335 333 335 336 335 334 333 333 333 333 334 334 334 333 331 330 329 329 328 327 326 326 326 326 326 327 326 325 325 325 325 325 324 323 323 324 324 323 322 324 326 324 323 323 322 320 319 319 319 319 318 317 317 317 318 318 318 317 317 317 316 316 315 314 314 313 312
338 338 339 339 340 341 342 342 342 340 338 337 337 338 340 344 345 343 340 338 335 333 333 333 332 330 330 329 329 329 330 331 332 332 330 329 329 328 328 327 326 326 326 326 326 326 325 324 325 325 325 325 324 323 324 324 323 323 324 325 326 325 323 323 322 320 319 319 319 318 317 316 316 317 317 318 318 318 317 316 316 315 315 314 313 313 312
336 337 338 339 340 341 343 343 342 339 336 335 333 332 333 336 340 340 337 335 333 330 329 328 328 328 328 327 327 328 329 329 330 330 329 328 328 328 328 327 326 325 325 325 325 326 326 325 325 325 324 323 323 323 324 324 323 324 325 326 325 324 323 322 321 320 319 319 319 319 317 317 317 317 317 317 318 318 317 316 316 315 315 315 314 313 313
334 335 336 337 339 341 342 342 341 339 336 334 333 332 330 330 333 334 334 332 330 328 326 326 327 326 325 325 325 327 328 328 328 329 328 328 328 327 327 327 326 325 325 325 326 327 326 326 326 326 326 324 322 322 324 323 321 323 326 326 324 323 322 321 320 320 319 319 319 318 317 317 318 318 318 318 318 318 317 317 317 316 316 316 315 315 315
332 332 333 334 337 339 340 340 340 339 338 337 337 335 332 329 329 330 330 329 328 326 325 325 325 323 323 323 323 326 327 327 327 328 327 326 327 327 327 327 327 326 326 326 326 327 327 326 325 326 327 326 324 323 324 323 322 323 325 325 323 323 322 321 320 320 320 320 320 319 319 319 319 319 319 319 319 319 318 318 318 318 317 317 317 317 316
329 329 330 331 334 335 336 337 337 337 338 338 338 336 335 332 330 329 327 326 327 326 325 324 323 322 322 321 322 326 328 327 326 327 327 326 327 327 327 327 327 326 326 327 327 328 328 328 327 327 327 327 326 325 325 324 325 325 325 324 323 323 322 321 321 320 320 321 321 320 320 320 321 320 320 320 319 319 319 319 319 319 319 319 319 318 318
326 326 326 328 330 331 332 333 334 333 334 333 332 332 333 332 331 330 328 325 325 326 327 326 324 322 322 321 320 325 329 327 325 326 326 326 327 327 326 326 328 327 327 328 328 328 328 328 328 328 328 328 327 326 326 327 327 326 324 324 323 322 321 321 321 321 321 321 321 320 320 320 320 320 320 320 320 321 321 321 320 320 320 320 320 320 319
323 323 324 325 327 328 329 331 331 331 331 330 329 329 329 330 331 331 330 327 325 325 327 327 325 323 323 321 320 325 328 326 324 325 325 325 326 327 327 327 328 328 328 329 329 329 329 329 329 329 330 330 328 327 327 328 327 326 324 324 324 323 323 323 323 322 322 322 322 321 322 322 322 322 322 322 322 322 322 322 322 322 321 321 321 321 321
321 321 321 323 324 325 326 328 330 329 328 327 326 326 326 327 328 330 331 331 330 327 326 326 325 324 324 321 321 324 326 325 324 325 325 325 326 327 327 327 328 329 329 330 329 329 329 330 330 329 330 330 330 329 329 327 326 325 324 324 324 324 325 324 324 323 323 323 323 323 323 323 323 323 323 323 323 324 323 323 323 323 323 323 323 323 323
319 319 320 321 323 324 324 326 327 328 326 325 324 324 324 325 326 327 329 331 332 332 330 327 325 325 324 321 321 324 325 325 325 326 326 326 326 327 327 327 328 329 330 329 329 329 330 330 330 330 330 331 331 330 330 327 326 325 324 324 325 326 325 325 325 324 324 324 324 324 324 324 324 324 324 324 325 325 325 325 325 325 325 325 325 325 325
318 318 319 321 322 322 323 324 325 326 325 323 323 323 324 325 325 326 328 329 329 330 331 328 326 325 324 322 323 325 326 326 326 326 327 327 327 328 328 328 329 330 330 330 330 331 331 331 331 331 331 331 331 330 330 328 326 325 325 326 326 327 326 326 325 325 325 325 325 325 325 325 325 325 325 325 326 326 326 326 327 327 326 326 326 326 326
317 317 318 320 321 321 321 322 324 324 323 323 322 323 324 325 325 325 326 326 326 327 328 328 326 325 324 323 324 326 327 326 325 326 327 328 328 328 329 329 330 330 329 329 331 332 331 331 332 331 330 330 330 330 330 329 327 327 327 327 327 326 326 326 326 326 325 325 325 325 325 325 325 326 326 326 326 326 327 327 327 327 327 327 327 328 328
317 316 316 318 319 320 320 321 322 322 321 322 323 323 324 325 325 324 324 324 325 326 327 326 324 324 325 324 323 325 327 327 326 326 327 327 327 328 328 329 330 330 329 329 332 333 331 330 331 331 330 330 330 330 329 329 328 328 328 328 327 326 326 326 326 327 327 326 326 326 326 326 326 326 326 326 327 327 327 328 328 328 328 328 328 328 328
315 315 315 315 317 318 319 320 321 321 320 321 322 323 323 324 324 323 323 323 324 325 325 325 324 324 325 324 324 324 326 327 326 325 326 326 327 328 328 329 330 330 329 330 332 332 330 330 330 331 331 331 330 329 329 329 329 329 329 329 328 328 327 327 328 328 328 329 328 328 328 327 327 327 327 327 327 327 328 328 328 328 328 328 328 328 328
313 312 313 314 315 317 318 319 320 321 320 321 322 322 321 321 322 323 323 324 323 323 324 325 324 323 324 324 324 324 325 326 326 326 326 327 328 328 329 330 331 329 329 330 332 331 330 330 330 331 331 331 331 330 329 329 329 329 329 329 329 329 328 328 329 329 330 330 329 329 328 328 327 327 327 327 327 327 327 327 327 327 327 327 327 328 328
311 311 313 314 315 316 317 318 320 321 321 321 321 320 320 320 321 321 321 322 322 322 323 324 324 324 324 325 325 324 325 326 327 326 326 327 329 329 330 330 330 329 329 330 331 330 329 330 330 331 331 331 331 330 330 330 329 329 329 329 329 329 329 329 329 330 330 330 329 329 328 328 327 327 327 327 327 327 327 327 326 326 326 326 327 327 328
311 312 314 314 315 316 316 316 318 320 320 319 319 319 319 320 320 319 320 321 321 322 322 323 324 324 324 325 326 325 325 326 327 326 326 327 329 329 329 329 329 329 330 330 330 329 330 330 331 331 331 331 331 331 330 330 330 329 329 330 330 330 330 330 330 330 330 330 329 329 328 328 327 327 327 328 328 327 327 326 326 325 325 325 326 326 327
311 313 315 314 314 316 315 315 317 319 319 318 318 318 318 318 319 319 320 320 320 321 322 323 324 323 323 325 325 325 326 326 326 326 327 329 329 329 329 329 329 329 330 329 330 330 330 331 331 331 331 331 331 331 330 330 330 330 329 330 330 330 330 330 330 330 329 329 329 329 328 328 327 327 327 328 329 328 327 326 326 325 325 325 325 326 326
312 314 315 314 313 315 315 315 316 318 318 317 317 317 317 317 318 318 319 319 320 321 321 322 323 323 324 325 325 325 325 326 326 327 328 328 328 328 329 329 329 330 329 329 330 330 330 330 330 331 331 331 331 330 330 330 330 330 330 330 330 330 330 330 330 329 329 329 328 328 328 327 327 327 327 328 328 328 328 327 326 325 325 324 325 325 325
312 313 314 313 312 313 314 314 315 316 316 315 316 317 317 317 317 317 318 319 320 321 321 322 322 323 324 325 325 325 326 326 326 327 328 328 327 329 330 330 329 330 330 329 329 330 330 330 330 330 331 331 330 330 330 330 330 330 330 330 330 330 330 330 329 329 328 328 328 327 327 327 327 326 327 327 327 328 327 327 326 325 325 324 324 325 325
312 312 313 312 311 311 313 314 314 314 314 314 315 316 316 316 317 318 318 319 319 320 321 322 323 323 324 324 324 325 326 326 326 328 329 329 328 329 330 329 329 330 330 329 329 329 329 329 330 330 330 330 330 330 330 330 330 330 330 330 330 330 330 329 329 328 328 327 327 326 327 326 326 326 326 326 326 327 327 327 326 325 325 324 324 325 326
312 311 311 311 310 311 312 313 313 313 313 314 314 315 315 316 317 318 318 319 320 321 322 323 323 323 323 325 325 325 325 326 327 328 329 329 328 329 329 328 328 329 330 329 329 329 329 329 329 329 330 330 330 330 330 330 330 330 330 330 330 330 329 329 328 328 327 327 326 326 326 326 325 325 325 325 325 326 326 326 326 325 325 325 325 325 326
311 311 311 310 310 310 311 312 312 312 312 313 314 314 315 316 317 317 318 319 320 321 322 322 323 323 324 325 325 325 326 327 327 328 328 328 328 329 328 327 327 329 329 329 329 328 328 329 329 330 330 331 331 331 330 330 330 330 330 330 330 329 329 328 327 327 326 326 325 325 325 326 325 325 325 325 325 325 325 326 326 326 326 327 326 326 326
309 310 310 310 310 310 310 311 311 312 312 313 313 314 315 315 316 317 318 319 320 322 322 323 323 323 324 324 325 325 326 326 327 327 327 327 328 328 327 326 327 328 328 328 328 328 329 329 330 330 331 331 331 331 330 330 330 330 330 330 330 329 328 328 327 327 326 326 325 325 325 325 325 325 324 324 324 325 325 326 327 328 328 328 328 327 327
308 308 309 309 309 310 310 311 312 312 312 313 313 314 314 314 316 317 318 319 321 322 322 322 322 323 323 324 325 325 325 326 326 327 327 327 327 327 326 326 327 327 327 327 328 328 329 330 330 331 331 331 331 330 330 330 330 330 330 330 330 329 329 328 327 327 326 326 326 326 325 325 325 325 325 326 326 326 327 328 329 329 329 329 329 328 328